Location: Newark
(52.4787°S, 179.0532°W)
Time: 11:13:07
(UTC+00:00)

Transit 2A Rocket - Pass Details

Date: 25 November 2019
Orbit: 594 x 909 km, 66.7° (Epoch: 12 December)

Event Time Altitude Azimuth Distance (km) Brightness Sun altitude
Rises 06:12:44 0° 227° (SW) 3,567 9.8 11.9°
Reaches altitude 10° 06:16:12 10° 246° (WSW) 2,598 10.9 11.4°
Maximum altitude 06:19:52 17° 284° (WNW) 2,103 8.4 10.9°
Drops below altitude 10° 06:23:26 10° 321° (NW) 2,499 8.0 10.4°
Sets 06:26:41 0° 341° (NNW) 3,371 8.3 9.9°
